#timestamp,LO_Frequency,Hit,StdDev 
1571144415.7,286046992.0,N
1571144435.5,286046992.6,N
1571144455.3,286046992.8,N
1571144475.2,286046990.8,N
1571144495.0,286046988.6,Y
1571144495.9,286046988.6,P
1571144515.8,286046994.5,N
1571144535.6,286046992.2,N
1571144555.4,286046992.7,N
1571144575.3,286046992.7,Y
1571144595.1,286046998.2,P
1571144615.9,286047002.7,N
1571144635.7,286047000.0,N
1571144655.5,286047000.8,N
1571144675.4,286046999.6,N
1571144695.2,286046999.5,N
1571144715.0,286046996.9,N
1571144715.9,286046996.9,N
1571144735.8,286046996.6,N
1571144755.6,286046998.0,N
1571144775.4,286046996.1,N
1571144795.3,286046996.1,N
1571144815.1,286046993.7,N
1571144835.9,286046993.8,N
1571144855.7,286046994.1,N
1571144875.5,286046993.4,N
1571144895.4,286046995.4,N
1571144915.2,286046995.6,N
1571144935.0,286046995.6,N
1571144936.0,286046995.6,N
1571144955.8,286046996.2,N
1571144975.6,286046995.3,N
1571144995.5,286046995.9,N
1571145015.3,286046995.8,N
1571145035.1,286046995.7,N
1571145055.9,286046995.2,N
1571145075.7,286046995.6,N
1571145095.6,286046994.9,N
1571145115.4,286046993.6,N
1571145135.2,286046994.5,N
1571145155.1,286046993.7,N
1571145156.0,286046993.7,N
1571145175.8,286046993.5,Y
1571145195.6,286046997.5,P
1571145215.5,286046999.6,N
1571145235.3,286046996.5,N
1571145255.2,286046997.4,N
1571145275.9,286046998.0,N
1571145295.7,286046995.8,Y
1571145315.6,286046999.5,P
1571145335.4,286046997.0,P
1571145355.3,286046997.6,N
1571145375.1,286046996.8,Y
1571145376.0,286046996.8,P
1571145395.8,286046998.3,P
1571145415.7,286046998.3,N
1571145435.5,286046999.4,N
1571145455.4,286046997.0,Y
1571145475.2,286046998.1,P
1571145495.0,286046998.5,P
1571145495.9,286046998.5,P
1571145515.8,286047000.9,Y
1571145535.6,286047000.1,P
1571145555.5,286047002.5,N
1571145575.3,286046999.7,N
1571145595.1,286047004.4,N
1571145615.9,286047004.3,N
1571145635.7,286047002.8,N
1571145655.5,286047002.6,N
1571145675.4,286046999.9,N
1571145695.2,286047000.8,N
1571145715.1,286047000.6,N
1571145716.0,286047000.6,N
1571145735.8,286047001.1,N
1571145755.6,286047000.3,N
1571145775.5,286047000.0,N
1571145795.3,286047002.1,N
1571145815.2,286047002.8,N
1571145835.9,286047000.7,N
1571145855.7,286047001.2,N
1571145875.6,286046999.8,N
1571145895.4,286047001.7,N
1571145915.2,286047003.9,N
1571145935.1,286047002.8,N
1571145936.0,286047002.8,N
1571145955.8,286047000.9,N
1571145975.7,286046998.6,N
1571145995.5,286046998.7,N
1571146015.3,286046998.4,N
1571146035.2,286047000.7,N
1571146055.0,286047002.2,N
1571146055.9,286047002.2,N
1571146075.7,286046999.8,N
1571146095.6,286047000.5,N
1571146115.4,286046999.9,N
1571146135.3,286047000.6,N
1571146155.1,286047000.6,N
1571146156.0,286047000.6,N
1571146175.8,286047002.4,N
1571146195.7,286047000.3,N
1571146215.5,286046999.9,N
1571146235.4,286047000.7,N
1571146255.2,286047000.5,N
1571146275.0,286046999.1,N
1571146275.9,286046999.1,N
1571146295.8,286046996.6,N
1571146315.6,286046997.5,N
1571146335.4,286046997.4,N
1571146355.3,286046996.6,N
1571146375.1,286046998.3,N
1571146395.9,286047000.0,N
1571146415.7,286047002.7,N
1571146435.5,286046999.9,N
1571146455.4,286047000.0,N
1571146475.2,286047000.2,N
1571146495.0,286046999.9,N
1571146495.9,286046999.9,N
1571146515.8,286046998.6,N
1571146535.6,286046998.5,N
1571146555.5,286046998.5,N
1571146575.3,286046998.6,N
1571146595.1,286046998.2,N
1571146615.9,286047000.8,N
1571146635.7,286047001.0,N
1571146655.5,286047000.3,N
1571146675.4,286047002.3,N
1571146695.2,286047002.5,N
1571146715.1,286047002.1,N
1571146716.0,286047002.1,N
1571146735.8,286047001.9,N
1571146755.6,286047000.8,N
1571146775.5,286047000.3,N
1571146795.3,286047002.3,N
1571146815.2,286047001.4,N
1571146835.9,286047004.3,N
1571146855.7,286047001.3,N
1571146875.6,286047003.8,N
1571146895.4,286047002.6,N
1571146915.2,286047004.1,N
1571146935.1,286047002.4,N
1571146936.0,286047002.4,N
1571146955.8,286047000.3,N
1571146975.7,286047002.0,N
1571146995.5,286047003.5,N
1571147015.3,286047003.8,N
1571147035.2,286047005.8,Y
1571147055.0,286047003.9,P
1571147055.9,286047003.9,P
1571147075.8,286047004.3,P
1571147095.6,286047001.3,N
1571147115.4,286047001.8,N
1571147135.3,286047002.1,N
1571147155.1,286047001.7,N
1571147175.8,286047001.7,N
1571147195.7,286047002.7,N
1571147215.5,286046999.7,N
1571147235.4,286047000.5,N
1571147255.2,286047000.0,N
1571147275.0,286047002.7,N
1571147275.9,286047002.7,N
1571147295.8,286047000.9,N
1571147315.6,286047000.8,N
1571147335.4,286046998.4,N
1571147355.3,286046998.4,N
1571147375.1,286047000.8,N
1571147395.9,286046999.0,N
1571147415.7,286046998.4,N
1571147435.5,286046998.5,N
1571147455.4,286047000.5,N
1571147475.2,286047000.5,N
1571147495.0,286047000.0,N
1571147495.9,286047000.0,N
1571147515.8,286047002.4,N
1571147535.6,286046999.9,N
1571147555.5,286047002.7,N
1571147575.3,286047003.8,N
1571147595.1,286047001.9,N
1571147615.9,286047002.1,N
1571147635.7,286047003.9,N
1571147655.5,286047002.7,N
1571147675.4,286047001.6,N
1571147695.2,286047000.1,N
1571147715.1,286047002.6,N
1571147716.0,286047002.6,N
1571147735.8,286047002.2,N
1571147755.6,286047002.1,N
1571147775.5,286047002.8,N
1571147795.3,286046999.8,N
1571147815.2,286046999.7,N
1571147835.9,286047002.5,N
1571147855.7,286047002.1,N
1571147875.6,286047002.1,N
1571147895.4,286047001.6,N
1571147915.2,286047002.1,N
1571147935.1,286047002.3,N
1571147936.0,286047002.3,N
1571147955.8,286047002.0,N
1571147975.7,286047001.6,N
1571147995.5,286047003.1,N
